[[{"header":{"parameterUnit":"m.s-1","parameterCategory":1,"la1":30.2991,"la2":30.254,"lo1":-89.0895,"lo2":-89.0444,"dy":0.0017,"dx":0.0017,"nx":28,"ny":28,"refTime":"2025-07-23T09:00:00:Z","depth":0,"parameterNumber":2,"parameterNumberName":"U-component_of_WINDS"},"data":[0,0,0,0,0,0,0,0,0,0,0,0,0,0,0,0,0,0,0,0,0,0,0,0,0,0,0,0,0,0,0,0,0,0,0,0,0,0,0,0,0,0,0,0,0,0,0,0,0,0,0,0,0,0,0,0,0,0,-7.3251,-7.3251,0,-7.3218,-7.3217,-7.3217,-7.3083,-7.308,-7.3077,-7.3074,-7.3038,-7.3039,-7.3041,0,0,0,0,0,0,0,0,0,0,0,0,0,-7.3195,-7.3197,-7.3251,-7.3251,-7.325,-7.3218,-7.3217,-7.3217,-7.3083,-7.308,-7.3076,-7.3072,-7.3037,-7.3039,-7.3042,0,0,0,0,0,0,0,0,0,0,0,0,0,-7.3196,-7.3197,-7.3251,-7.318,-7.3173,-7.3218,-7.3217,-7.3217,-7.3084,-7.308,-7.3075,-7.3071,-7.3036,-7.3039,-7.3042,-7.3152,0,0,-7.3051,-7.3052,0,0,0,0,0,0,0,0,-7.3196,-7.3198,-7.3191,-7.3185,-7.3177,-7.315,-7.3184,-7.3195,-7.3085,-7.3118,-7.3074,-7.3068,-7.3079,-7.3078,-7.3081,-7.315,-7.3149,-7.3051,-7.3053,-7.3054,-7.3055,0,0,0,0,0,0,0,-7.3196,-7.3199,-7.3238,-7.3191,-7.3183,-7.3148,-7.3143,-7.3185,-7.3125,-7.3115,-7.3105,-7.3103,-7.3074,-7.3079,-7.308,-7.3148,-7.3051,-7.3053,-7.3055,-7.3056,-7.3299,-7.3303,0,0,0,0,0,0,-7.3207,-7.32,-7.3239,-7.3237,-7.3176,-7.3153,-7.3147,-7.3163,-7.3124,-7.3113,-7.3107,-7.3097,-7.3076,-7.3076,-7.3078,-7.3198,-7.3054,-7.3057,-7.3058,-7.3294,-7.33,-7.3305,0,0,0,0,0,0,-7.3206,-7.3212,-7.324,-7.3216,-7.3217,-7.3159,-7.3178,-7.3165,-7.317,-7.3118,-7.3106,-7.3123,-7.3073,-7.3074,-7.3133,-7.3195,-7.3058,-7.306,-7.3288,-7.3296,-7.3302,-7.3444,0,0,0,0,0,0,-7.3205,-7.3212,-7.3255,-7.3218,-7.3219,-7.3298,-7.3182,-7.3168,-7.3175,-7.3162,-7.313,-7.312,-7.3069,-7.313,-7.3136,-7.3197,-7.3063,-7.3282,-7.3292,-7.33,-7.3433,-7.3455,-7.3473,0,0,0,0,0,-7.3204,-7.3297,-7.3258,-7.3263,-7.3271,-7.3302,-7.3302,-7.3242,-7.3181,-7.3222,-7.3188,-7.3121,-7.3189,-7.3137,-7.3143,-7.3205,-7.3278,-7.3289,-7.3299,-7.3424,-7.3451,-7.3473,0,0,0,0,0,0,-7.3344,-7.3291,-7.3247,-7.3332,-7.3322,-7.3279,-7.3329,-7.3273,-7.328,-7.3267,-7.3191,-7.3185,-7.3254,-7.3237,-7.318,-7.3306,-7.3222,-7.3234,-7.3315,-7.3339,-7.3359,-7.3359,-7.3065,0,0,0,0,0,-7.3385,-7.3416,-7.3368,-7.3447,-7.3444,-7.3388,-7.34,-7.3354,-7.3341,-7.3336,-7.3306,-7.3295,-7.3312,-7.3326,-7.334,-7.3432,-7.3419,-7.3477,-7.3498,-7.3514,-7.3524,-7.3564,-7.3587,-7.334,-7.3339,-7.3339,0,0,-7.3469,-7.3444,-7.3468,-7.3474,-7.3462,-7.3492,-7.3386,-7.3425,-7.3445,-7.3341,-7.3393,-7.3372,-7.3354,-7.3428,-7.346,-7.3415,-7.359,-7.3528,-7.3542,-7.3542,-7.3577,-7.3601,-7.3622,-7.3347,-7.3345,-7.3344,0,0,-7.3637,-7.3624,-7.3685,-7.3674,-7.3656,-7.3617,-7.3632,-7.3597,-7.3578,-7.363,-7.355,-7.3574,-7.3609,-7.3597,-7.3596,-7.3756,-7.3693,-7.3764,-7.3866,-7.3906,-7.3926,-7.3942,-7.3993,-7.4013,-7.3775,-7.3775,-7.3775,0,-7.3744,-7.3788,-7.3724,-7.3766,-7.3768,-7.3676,-7.3735,-7.3727,-7.3715,-7.3717,-7.3669,-7.3706,-7.3689,-7.3755,-7.3794,-7.3799,-7.3809,-7.3764,-7.3929,-7.3945,-7.3959,-7.4006,-7.4026,-7.3783,-7.3782,-7.3781,-7.3781,0,-7.3916,-7.3948,-7.4,-7.3988,-7.3997,-7.4048,-7.3989,-7.4006,-7.3959,-7.3925,-7.3975,-7.3951,-7.3955,-7.3969,-7.3925,-7.4028,-7.4,-7.3942,-7.3854,-7.3992,-7.4034,-7.4053,-7.3795,-7.3792,-7.379,-7.3788,0,0,-7.417,-7.412,-7.414,-7.413,-7.4102,-7.4124,-7.417,-7.4174,-7.4186,-7.4181,-7.4213,-7.4243,-7.4187,-7.4186,-7.4139,-7.4176,-7.4295,-7.4111,-7.4109,-7.414,-7.44,-7.4439,-7.4462,-7.4256,-7.4259,-7.4262,-7.4399,0,-7.4324,-7.4398,-7.434,-7.4423,-7.4447,-7.4359,-7.4398,-7.4383,-7.4352,-7.4368,-7.4333,-7.4352,-7.4281,-7.4278,-7.4311,-7.4274,-7.4345,-7.4264,-7.428,-7.4281,-7.4281,-7.4485,-7.4528,-7.4659,-7.4416,-7.4419,-7.4421,0,-7.4514,-7.4514,-7.4599,-7.456,-7.4569,-7.4604,-7.46,-7.4618,-7.4598,-7.4573,-7.457,-7.4512,-7.455,-7.4469,-7.4517,-7.4463,-7.4466,-7.4449,-7.4452,-7.4446,-7.4355,-7.4478,-7.47,-7.4717,-7.4448,-7.4446,-7.4444,0,-7.4682,-7.4705,-7.4756,-7.4752,-7.471,-7.4736,-7.472,-7.4695,-7.47,-7.4697,-7.4697,-7.47,-7.47,-7.4702,-7.4644,-7.4591,-7.4697,-7.4613,-7.4673,-7.4674,-7.4695,-7.4693,-7.4913,-7.4708,-7.4708,-7.4708,-7.4707,0,-7.4857,-7.491,-7.483,-7.4861,-7.4917,-7.485,-7.4907,-7.4881,-7.486,-7.4882,-7.4809,-7.4831,-7.4757,-7.4771,-7.4727,-7.477,-7.4772,-7.4749,-7.4736,-7.4752,-7.4754,-7.4749,-7.4736,-7.4713,-7.4712,-7.4711,-7.471,0,-7.5051,-7.5001,-7.505,-7.5005,-7.4995,-7.5038,-7.4998,-7.5024,-7.4988,-7.5017,-7.502,-7.4963,-7.4974,-7.4919,-7.4923,-7.4892,-7.4955,-7.493,-7.4961,-7.495,-7.5011,-7.5004,-7.523,-7.5254,-7.5041,-7.5043,-7.5045,0,-7.5163,-7.5202,-7.5161,-7.517,-7.5157,-7.5174,-7.5177,-7.5112,-7.5118,-7.5096,-7.5123,-7.5129,-7.513,-7.5153,-7.511,-7.511,-7.508,-7.5159,-7.5079,-7.5093,-7.5073,-7.5069,-7.5069,-7.5174,-7.5177,-7.5179,-7.5181,0,-7.5365,-7.5337,-7.5344,-7.5342,-7.5348,-7.5343,-7.5334,-7.5346,-7.5275,-7.5285,-7.5295,-7.5296,-7.5297,-7.5302,-7.5293,-7.5273,-7.5214,-7.5207,-7.522,-7.5234,-7.5248,-7.5234,-7.4999,-7.5201,-7.5199,-7.5198,-7.5196,-7.5196,-7.5517,-7.5544,-7.5518,-7.5528,-7.5513,-7.5505,-7.5524,-7.549,-7.5498,-7.5493,-7.5455,-7.5471,-7.5446,-7.5428,-7.5414,-7.5424,-7.5386,-7.5407,-7.541,-7.5415,-7.5422,-7.5251,-7.5423,-7.5423,-7.5422,-7.5422,-7.5421,0,-7.5708,-7.5687,-7.5696,-7.5683,-7.569,-7.5635,-7.562,-7.5628,-7.5644,-7.5626,-7.5627,-7.5637,-7.564,-7.5598,-7.5594,-7.561,-7.5582,-7.5611,-7.5606,-7.5601,-7.546,-7.5446,-7.5633,-7.5633,-7.5633,-7.5633,-7.5633,-7.5633,-7.5809,-7.585,-7.5819,-7.5851,-7.5828,-7.5843,-7.5839,-7.5829,-7.5813,-7.5827,-7.5829,-7.5802,-7.5772,-7.5766,-7.5765,-7.5752,-7.5751,-7.5788,-7.5765,-7.5633,-7.5612,-7.5592,-7.5578,-7.579,-7.579,-7.5904,-7.5905,-7.5906]},{"header":{"parameterUnit":"m.s-1","parameterCategory":1,"la1":30.2991,"la2":30.254,"lo1":-89.0895,"lo2":-89.0444,"dy":0.0017,"dx":0.0017,"nx":28,"ny":28,"refTime":"2025-07-23T09:00:00:Z","depth":0,"parameterNumber":3,"parameterNumberName":"V-component_of_WINDS"},"data":[0,0,0,0,0,0,0,0,0,0,0,0,0,0,0,0,0,0,0,0,0,0,0,0,0,0,0,0,0,0,0,0,0,0,0,0,0,0,0,0,0,0,0,0,0,0,0,0,0,0,0,0,0,0,0,0,0,0,4.2654,4.2657,0,4.2971,4.2975,4.2978,4.3014,4.3011,4.3008,4.3005,4.3327,4.3338,4.335,0,0,0,0,0,0,0,0,0,0,0,0,0,4.208,4.2091,4.2654,4.2658,4.2662,4.297,4.2975,4.2979,4.3015,4.3011,4.3007,4.3004,4.3323,4.3337,4.3351,0,0,0,0,0,0,0,0,0,0,0,0,0,4.2356,4.2094,4.2653,4.2717,4.2726,4.297,4.2975,4.298,4.3016,4.3011,4.3006,4.3002,4.3319,4.3336,4.3353,4.3554,0,0,4.3406,4.3413,0,0,0,0,0,0,0,0,4.2341,4.2377,4.2704,4.2713,4.2723,4.2948,4.2891,4.3173,4.3017,4.2906,4.3005,4.3,4.3205,4.3231,4.3301,4.3569,4.3583,4.3407,4.3418,4.3425,4.343,0,0,0,0,0,0,0,4.2321,4.2364,4.2779,4.2708,4.272,4.273,4.2764,4.2944,4.3078,4.2915,4.2918,4.2956,4.3209,4.3284,4.3309,4.3588,4.3407,4.3422,4.3433,4.3439,4.4043,4.4048,0,0,0,0,0,0,4.2291,4.2348,4.2769,4.2789,4.2517,4.2744,4.2782,4.2881,4.3076,4.3101,4.2959,4.2956,4.3257,4.3289,4.332,4.3573,4.3425,4.3441,4.3451,4.4037,4.4044,4.405,0,0,0,0,0,0,4.2278,4.2328,4.2756,4.257,4.2625,4.2759,4.287,4.289,4.2965,4.311,4.3133,4.3011,4.3255,4.3296,4.3497,4.3584,4.3449,4.3465,4.403,4.4039,4.4047,4.4077,0,0,0,0,0,0,4.2262,4.2323,4.24,4.2571,4.2635,4.2928,4.2875,4.2899,4.2995,4.2993,4.3165,4.3188,4.3254,4.3471,4.3514,4.3606,4.3478,4.4023,4.4034,4.4044,4.4068,4.4085,4.4099,0,0,0,0,0,4.2241,4.2394,4.2404,4.2455,4.2734,4.2932,4.2969,4.3042,4.3001,4.3081,4.3175,4.3183,4.3568,4.3491,4.354,4.3638,4.4018,4.4031,4.4044,4.4062,4.4082,4.4099,0,0,0,0,0,0,4.2228,4.2418,4.2431,4.2644,4.2772,4.2938,4.304,4.306,4.3202,4.3195,4.3279,4.3317,4.3516,4.3597,4.3509,4.3846,4.3789,4.3812,4.3786,4.3806,4.3821,4.3798,4.3492,0,0,0,0,0,4.2251,4.2396,4.2553,4.2726,4.2791,4.2905,4.2993,4.3039,4.3175,4.3229,4.3337,4.3469,4.362,4.3717,4.3864,4.408,4.412,4.4172,4.4187,4.4199,4.4219,4.4344,4.437,4.4092,4.4092,4.4092,0,0,4.2297,4.2419,4.2505,4.2727,4.2832,4.2982,4.295,4.3108,4.3221,4.3253,4.3451,4.3535,4.3688,4.3899,4.3997,4.3972,4.4305,4.4216,4.4224,4.4237,4.436,4.4386,4.4409,4.4101,4.4099,4.4098,0,0,4.246,4.2566,4.2724,4.2831,4.2991,4.3067,4.3104,4.3269,4.3327,4.3528,4.3557,4.3692,4.3948,4.4058,4.4146,4.4356,4.4371,4.4401,4.4482,4.4603,4.4625,4.4645,4.4724,4.475,4.442,4.442,4.442,0,4.2498,4.2725,4.2802,4.2962,4.306,4.3099,4.3261,4.336,4.3559,4.3627,4.3596,4.3924,4.4029,4.4268,4.432,4.4389,4.4437,4.4383,4.4616,4.4637,4.4657,4.4733,4.4761,4.4423,4.4423,4.4423,4.4422,0,4.2766,4.2924,4.3032,4.3227,4.3337,4.3496,4.3599,4.3701,4.3738,4.3818,4.4024,4.4151,4.4327,4.4387,4.4423,4.4633,4.4614,4.4599,4.4543,4.4685,4.4758,4.4787,4.4427,4.4426,4.4425,4.4425,0,0,4.2927,4.3166,4.3205,4.3296,4.3478,4.3601,4.3764,4.3938,4.4026,4.4162,4.4303,4.4522,4.4512,4.4613,4.4662,4.4768,4.4932,4.4742,4.4746,4.4775,4.5176,4.5188,4.522,4.4942,4.4948,4.4952,4.5164,0,4.3113,4.3406,4.3482,4.3731,4.388,4.3921,4.4063,4.4191,4.427,4.4408,4.4496,4.4652,4.4623,4.4686,4.4792,4.4889,4.5014,4.4874,4.5075,4.5082,4.5038,4.5257,4.5269,4.5463,4.5193,4.5198,4.5201,0,4.3369,4.3515,4.378,4.3947,4.4012,4.4139,4.4307,4.4438,4.4585,4.4635,4.4751,4.4792,4.4965,4.49,4.5142,4.5046,4.5133,4.5193,4.5203,4.5226,4.5151,4.5289,4.5526,4.5556,4.5246,4.5242,4.5239,0,4.3465,4.3727,4.3921,4.3997,4.4196,4.4285,4.4372,4.4514,4.4615,4.4762,4.4829,4.4993,4.5083,4.521,4.5295,4.5239,4.5531,4.5472,4.558,4.5579,4.5641,4.5636,4.5898,4.5692,4.5692,4.5691,4.5691,0,4.3666,4.3827,4.3967,4.4086,4.427,4.4356,4.4535,4.4623,4.475,4.4889,4.4933,4.5062,4.5165,4.5309,4.5376,4.5569,4.5608,4.5655,4.5672,4.5653,4.5648,4.5712,4.5702,4.5699,4.5698,4.5696,4.5695,0,4.3803,4.3903,4.4118,4.4291,4.4338,4.4466,4.4614,4.4732,4.4814,4.4989,4.5035,4.5164,4.5336,4.5433,4.5648,4.5694,4.591,4.5918,4.5861,4.5869,4.5972,4.5963,4.6287,4.6336,4.6095,4.6097,4.6098,0,4.3926,4.4052,4.4239,4.4336,4.4425,4.458,4.4685,4.4775,4.4883,4.5063,4.516,4.5335,4.548,4.5753,4.5866,4.6033,4.6047,4.615,4.6072,4.6051,4.6053,4.6046,4.6061,4.6163,4.6165,4.6167,4.6169,0,4.4135,4.4179,4.4329,4.4498,4.4622,4.4759,4.4895,4.4971,4.5085,4.5204,4.5382,4.5494,4.5717,4.5891,4.6068,4.6158,4.6184,4.6192,4.6227,4.621,4.6174,4.6199,4.59,4.6185,4.6183,4.6182,4.6181,4.618,4.4271,4.4387,4.4539,4.4705,4.4818,4.4945,4.5066,4.5165,4.5315,4.5505,4.5549,4.5737,4.5885,4.6125,4.6221,4.637,4.6352,4.64,4.6413,4.6425,4.6431,4.6148,4.6402,4.6401,4.6401,4.6401,4.6401,0,4.4485,4.4586,4.4738,4.4929,4.5061,4.5075,4.5227,4.5337,4.5502,4.5639,4.5782,4.5989,4.6159,4.6287,4.6463,4.6558,4.6575,4.6601,4.6596,4.6618,4.6435,4.6389,4.6585,4.6585,4.6585,4.6585,4.6585,4.6585,4.4612,4.4811,4.4874,4.5129,4.5229,4.5415,4.5501,4.562,4.573,4.5959,4.6102,4.6185,4.632,4.6506,4.6664,4.6698,4.6761,4.6787,4.6823,4.665,4.663,4.6611,4.6569,4.6799,4.68,4.6994,4.6996,4.6997]}]]